Time,TemperatureF,DewpointF,PressureIn,WindDirection,WindDirectionDegrees,WindSpeedMPH,WindSpeedGustMPH,Humidity,HourlyPrecipIn,Conditions,Clouds,dailyrainin,SoftwareType,DateUTC
2013-03-21 00:08:00,36.1,21.5,29.72,North,5,2.0,5.0,55,0.00,,,0.01,Wunderground v.1.15,2013-03-21 04:08:00,
2013-03-21 00:18:00,36.8,22.1,29.72,North,5,2.0,2.0,55,0.00,,,0.01,Wunderground v.1.15,2013-03-21 04:18:00,
2013-03-21 00:28:00,37.0,22.7,29.72,North,5,1.0,1.0,56,0.00,,,0.01,Wunderground v.1.15,2013-03-21 04:28:00,
2013-03-21 00:39:00,36.7,23.3,29.72,North,5,2.0,3.0,58,0.00,,,0.01,Wunderground v.1.15,2013-03-21 04:39:00,
2013-03-21 00:49:00,36.6,23.6,29.73,North,5,3.0,3.0,59,0.00,,,0.01,Wunderground v.1.15,2013-03-21 04:49:00,
2013-03-21 00:59:00,37.0,24.0,29.73,North,5,3.0,3.0,59,0.00,,,0.01,Wunderground v.1.15,2013-03-21 04:59:00,
2013-03-21 01:09:00,37.0,24.4,29.73,North,5,4.0,4.0,60,0.00,,,0.00,Wunderground v.1.15,2013-03-21 05:09:00,
2013-03-21 01:19:00,36.9,26.2,29.72,North,5,4.0,9.0,65,0.00,,,0.00,Wunderground v.1.15,2013-03-21 05:19:00,
2013-03-21 01:29:00,36.6,26.7,29.72,North,5,8.0,11.0,67,0.00,,,0.00,Wunderground v.1.15,2013-03-21 05:29:00,
2013-03-21 01:39:00,36.2,27.4,29.72,North,5,9.0,16.0,70,0.00,,,0.00,Wunderground v.1.15,2013-03-21 05:39:00,
2013-03-21 01:49:00,35.9,27.7,29.71,North,5,8.0,14.0,72,0.00,,,0.00,Wunderground v.1.15,2013-03-21 05:49:00,
2013-03-21 01:59:00,35.8,28.0,29.71,North,5,9.0,14.0,73,0.00,,,0.00,Wunderground v.1.15,2013-03-21 05:59:00,
2013-03-21 02:09:00,35.8,27.7,29.70,North,5,10.0,15.0,72,0.00,,,0.00,Wunderground v.1.15,2013-03-21 06:09:00,
2013-03-21 02:19:00,35.7,27.2,29.70,North,5,11.0,16.0,71,0.00,,,0.00,Wunderground v.1.15,2013-03-21 06:19:00,
2013-03-21 02:29:00,35.3,27.5,29.70,North,5,13.0,19.0,73,0.00,,,0.00,Wunderground v.1.15,2013-03-21 06:29:00,
2013-03-21 02:39:00,35.0,27.5,29.69,North,5,13.0,21.0,74,0.00,,,0.00,Wunderground v.1.15,2013-03-21 06:39:00,
2013-03-21 02:49:00,35.0,27.5,29.68,North,5,13.0,18.0,74,0.00,,,0.00,Wunderground v.1.15,2013-03-21 06:49:00,
2013-03-21 02:59:00,35.1,27.6,29.68,North,5,13.0,19.0,74,0.00,,,0.00,Wunderground v.1.15,2013-03-21 06:59:00,
2013-03-21 03:09:00,35.0,26.9,29.68,North,5,11.0,11.0,72,0.00,,,0.00,Wunderground v.1.15,2013-03-21 07:09:00,
2013-03-21 03:19:00,35.0,27.2,29.67,North,5,11.0,19.0,73,0.00,,,0.00,Wunderground v.1.15,2013-03-21 07:19:00,
2013-03-21 03:29:00,35.0,27.2,29.67,North,360,11.0,16.0,73,0.00,,,0.00,Wunderground v.1.15,2013-03-21 07:29:00,
2013-03-21 03:39:00,35.0,26.9,29.67,North,5,11.0,19.0,72,0.00,,,0.00,Wunderground v.1.15,2013-03-21 07:39:00,
2013-03-21 03:49:00,35.0,27.2,29.67,North,5,10.0,17.0,73,0.00,,,0.00,Wunderground v.1.15,2013-03-21 07:49:00,
2013-03-21 03:59:00,35.2,27.4,29.67,North,5,10.0,15.0,73,0.00,,,0.00,Wunderground v.1.15,2013-03-21 07:59:00,
2013-03-21 04:08:00,35.3,26.5,29.66,North,9,12.0,17.0,70,0.00,,,0.00,Wunderground v.1.15,2013-03-21 08:08:00,
2013-03-21 04:18:00,35.2,25.7,29.66,North,5,13.0,19.0,68,0.00,,,0.00,Wunderground v.1.15,2013-03-21 08:18:00,
2013-03-21 04:28:00,35.1,26.3,29.66,North,5,12.0,12.0,70,0.00,,,0.00,Wunderground v.1.15,2013-03-21 08:28:00,
2013-03-21 04:38:00,34.9,26.8,29.66,North,5,11.0,11.0,72,0.00,,,0.00,Wunderground v.1.15,2013-03-21 08:38:00,
2013-03-21 04:48:00,34.6,26.2,29.66,North,5,9.0,15.0,71,0.00,,,0.00,Wunderground v.1.15,2013-03-21 08:48:00,
2013-03-21 04:58:00,34.5,26.7,29.66,North,5,10.0,10.0,73,0.00,,,0.00,Wunderground v.1.15,2013-03-21 08:58:00,
2013-03-21 05:08:00,34.3,25.5,29.66,North,5,10.0,14.0,70,0.00,,,0.00,Wunderground v.1.15,2013-03-21 09:08:00,
2013-03-21 05:18:00,34.1,25.0,29.66,North,5,8.0,15.0,69,0.00,,,0.00,Wunderground v.1.15,2013-03-21 09:18:00,
2013-03-21 05:28:00,34.0,25.2,29.66,North,5,6.0,6.0,70,0.00,,,0.00,Wunderground v.1.15,2013-03-21 09:28:00,
2013-03-21 05:39:00,34.0,25.2,29.66,North,5,5.0,5.0,70,0.00,,,0.00,Wunderground v.1.15,2013-03-21 09:39:00,
2013-03-21 05:49:00,34.0,25.6,29.66,North,5,5.0,9.0,71,0.00,,,0.00,Wunderground v.1.15,2013-03-21 09:49:00,
2013-03-21 05:59:00,34.2,25.8,29.66,North,5,7.0,7.0,71,0.00,,,0.00,Wunderground v.1.15,2013-03-21 09:59:00,
2013-03-21 06:09:00,34.2,25.8,29.66,North,5,7.0,12.0,71,0.00,,,0.00,Wunderground v.1.15,2013-03-21 10:09:00,
2013-03-21 06:19:00,34.2,26.1,29.66,North,5,6.0,12.0,72,0.00,,,0.00,Wunderground v.1.15,2013-03-21 10:19:00,
2013-03-21 06:29:00,34.1,26.3,29.66,North,360,7.0,7.0,73,0.00,,,0.00,Wunderground v.1.15,2013-03-21 10:29:00,
2013-03-21 06:39:00,34.0,26.6,29.65,North,360,9.0,9.0,74,0.00,,,0.00,Wunderground v.1.15,2013-03-21 10:39:00,
2013-03-21 06:49:00,33.7,26.3,29.64,North,5,9.0,12.0,74,0.00,,,0.00,Wunderground v.1.15,2013-03-21 10:49:00,
2013-03-21 06:59:00,33.6,26.2,29.64,North,5,9.0,15.0,74,0.00,,,0.00,Wunderground v.1.15,2013-03-21 10:59:00,
2013-03-21 07:09:00,33.6,26.5,29.65,North,5,8.0,15.0,75,0.00,,,0.00,Wunderground v.1.15,2013-03-21 11:09:00,
2013-03-21 07:19:00,33.6,26.2,29.66,North,5,8.0,15.0,74,0.00,,,0.00,Wunderground v.1.15,2013-03-21 11:19:00,
2013-03-21 07:29:00,33.5,26.4,29.66,North,5,7.0,14.0,75,0.00,,,0.00,Wunderground v.1.15,2013-03-21 11:29:00,
2013-03-21 07:39:00,33.5,26.7,29.66,North,5,10.0,10.0,76,0.00,,,0.00,Wunderground v.1.15,2013-03-21 11:39:00,
2013-03-21 07:49:00,33.5,27.1,29.65,North,360,10.0,10.0,77,0.00,,,0.00,Wunderground v.1.15,2013-03-21 11:49:00,
2013-03-21 07:59:00,33.4,27.0,29.65,North,360,10.0,14.0,77,0.00,,,0.00,Wunderground v.1.15,2013-03-21 11:59:00,
2013-03-21 08:09:00,33.4,27.0,29.65,North,5,9.0,15.0,77,0.00,,,0.00,Wunderground v.1.15,2013-03-21 12:09:00,
2013-03-21 08:19:00,33.4,26.6,29.66,North,5,5.0,14.0,76,0.00,,,0.00,Wunderground v.1.15,2013-03-21 12:19:00,
2013-03-21 08:29:00,33.3,25.9,29.66,North,5,6.0,12.0,74,0.00,,,0.00,Wunderground v.1.15,2013-03-21 12:29:00,
2013-03-21 08:39:00,33.3,26.2,29.65,North,5,6.0,6.0,75,0.00,,,0.00,Wunderground v.1.15,2013-03-21 12:39:00,
2013-03-21 08:49:00,33.3,25.9,29.65,North,5,4.0,4.0,74,0.00,,,0.00,Wunderground v.1.15,2013-03-21 12:49:00,
2013-03-21 08:59:00,33.3,25.6,29.65,North,5,7.0,13.0,73,0.00,,,0.00,Wunderground v.1.15,2013-03-21 12:59:00,
2013-03-21 09:09:00,33.2,25.8,29.64,North,5,7.0,15.0,74,0.00,,,0.00,Wunderground v.1.15,2013-03-21 13:09:00,
2013-03-21 09:19:00,33.0,25.3,29.64,North,5,11.0,11.0,73,0.00,,,0.00,Wunderground v.1.15,2013-03-21 13:19:00,
2013-03-21 09:29:00,32.7,25.3,29.64,North,5,10.0,19.0,74,0.00,,,0.00,Wunderground v.1.15,2013-03-21 13:29:00,
2013-03-21 09:39:00,32.5,25.5,29.64,North,5,11.0,17.0,75,0.00,,,0.00,Wunderground v.1.15,2013-03-21 13:39:00,
2013-03-21 09:49:00,32.2,25.5,29.64,North,5,11.0,17.0,76,0.00,,,0.00,Wunderground v.1.15,2013-03-21 13:49:00,
2013-03-21 09:58:00,32.0,25.6,29.64,North,5,11.0,11.0,77,0.00,,,0.00,Wunderground v.1.15,2013-03-21 13:58:00,
2013-03-21 10:08:00,32.3,25.9,29.64,North,5,9.0,9.0,77,0.00,,,0.00,Wunderground v.1.15,2013-03-21 14:08:00,
2013-03-21 10:18:00,32.5,25.8,29.64,North,5,10.0,10.0,76,0.00,,,0.00,Wunderground v.1.15,2013-03-21 14:18:00,
2013-03-21 10:28:00,32.1,25.4,29.64,North,5,11.0,17.0,76,0.00,,,0.00,Wunderground v.1.15,2013-03-21 14:28:00,
2013-03-21 10:39:00,32.1,25.1,29.64,North,5,10.0,17.0,75,0.00,,,0.00,Wunderground v.1.15,2013-03-21 14:39:00,
2013-03-21 10:49:00,32.0,24.6,29.64,North,5,11.0,11.0,74,0.00,,,0.00,Wunderground v.1.15,2013-03-21 14:49:00,
2013-03-21 10:59:00,31.8,24.5,29.64,North,5,9.0,16.0,74,0.00,,,0.00,Wunderground v.1.15,2013-03-21 14:59:00,
2013-03-21 11:09:00,31.8,25.1,29.63,North,5,9.0,14.0,76,0.00,,,0.00,Wunderground v.1.15,2013-03-21 15:09:00,
2013-03-21 11:19:00,31.6,24.9,29.62,North,5,11.0,11.0,76,0.00,,,0.00,Wunderground v.1.15,2013-03-21 15:19:00,
2013-03-21 11:29:00,31.5,25.1,29.62,North,5,10.0,10.0,77,0.00,,,0.00,Wunderground v.1.15,2013-03-21 15:29:00,
2013-03-21 11:39:00,31.3,25.2,29.62,North,360,10.0,13.0,78,0.00,,,0.00,Wunderground v.1.15,2013-03-21 15:39:00,
2013-03-21 11:49:00,31.1,25.0,29.61,North,5,11.0,11.0,78,0.00,,,0.00,Wunderground v.1.15,2013-03-21 15:49:00,
2013-03-21 11:59:00,31.0,25.6,29.61,North,5,11.0,15.0,80,0.00,,,0.00,Wunderground v.1.15,2013-03-21 15:59:00,
2013-03-21 12:09:00,30.5,25.7,29.60,North,5,11.0,20.0,82,0.00,,,0.00,Wunderground v.1.15,2013-03-21 16:09:00,
2013-03-21 12:19:00,30.1,25.6,29.60,North,5,10.0,14.0,83,0.00,,,0.00,Wunderground v.1.15,2013-03-21 16:19:00,
2013-03-21 12:29:00,30.1,25.8,29.60,North,5,9.0,15.0,84,0.00,,,0.00,Wunderground v.1.15,2013-03-21 16:29:00,
2013-03-21 12:39:00,30.1,25.8,29.58,North,5,9.0,13.0,84,0.00,,,0.00,Wunderground v.1.15,2013-03-21 16:39:00,
2013-03-21 12:49:00,30.1,26.1,29.58,North,360,10.0,13.0,85,0.00,,,0.00,Wunderground v.1.15,2013-03-21 16:49:00,
2013-03-21 12:59:00,30.0,26.0,29.58,North,5,11.0,17.0,85,0.00,,,0.00,Wunderground v.1.15,2013-03-21 16:59:00,
2013-03-21 13:09:00,30.1,25.6,29.58,North,5,11.0,11.0,83,0.00,,,0.00,Wunderground v.1.15,2013-03-21 17:09:00,
2013-03-21 13:19:00,30.4,25.6,29.58,North,5,9.0,9.0,82,0.00,,,0.00,Wunderground v.1.15,2013-03-21 17:19:00,
2013-03-21 13:29:00,30.6,25.5,29.58,North,360,9.0,16.0,81,0.00,,,0.00,Wunderground v.1.15,2013-03-21 17:29:00,
2013-03-21 13:39:00,31.1,25.3,29.57,North,5,9.0,15.0,79,0.00,,,0.00,Wunderground v.1.15,2013-03-21 17:39:00,
2013-03-21 13:49:00,31.6,25.2,29.56,North,5,7.0,7.0,77,0.00,,,0.00,Wunderground v.1.15,2013-03-21 17:49:00,
2013-03-21 13:59:00,32.0,25.3,29.56,North,360,7.0,11.0,76,0.00,,,0.00,Wunderground v.1.15,2013-03-21 17:59:00,
2013-03-21 14:08:00,32.5,25.8,29.55,North,5,8.0,11.0,76,0.00,,,0.00,Wunderground v.1.15,2013-03-21 18:08:00,
2013-03-21 14:18:00,32.4,25.4,29.55,North,5,8.0,15.0,75,0.00,,,0.00,Wunderground v.1.15,2013-03-21 18:18:00,
2013-03-21 14:28:00,32.3,24.6,29.55,North,5,11.0,15.0,73,0.00,,,0.00,Wunderground v.1.15,2013-03-21 18:28:00,
2013-03-21 14:38:00,32.1,25.4,29.55,North,5,13.0,16.0,76,0.00,,,0.00,Wunderground v.1.15,2013-03-21 18:38:00,
2013-03-21 14:48:00,31.9,25.2,29.54,North,5,14.0,14.0,76,0.00,,,0.00,Wunderground v.1.15,2013-03-21 18:48:00,
2013-03-21 14:58:00,31.8,24.8,29.54,North,5,14.0,21.0,75,0.00,,,0.00,Wunderground v.1.15,2013-03-21 18:58:00,
2013-03-21 15:08:00,31.7,25.3,29.53,North,5,14.0,14.0,77,0.00,,,0.00,Wunderground v.1.15,2013-03-21 19:08:00,
2013-03-21 15:18:00,31.6,25.5,29.53,North,5,13.0,18.0,78,0.00,,,0.00,Wunderground v.1.15,2013-03-21 19:18:00,
2013-03-21 15:28:00,31.6,25.5,29.53,North,5,12.0,12.0,78,0.00,,,0.00,Wunderground v.1.15,2013-03-21 19:28:00,
2013-03-21 15:39:00,31.5,25.4,29.53,North,360,11.0,11.0,78,0.00,,,0.00,Wunderground v.1.15,2013-03-21 19:39:00,
2013-03-21 15:49:00,31.5,25.4,29.52,North,5,12.0,15.0,78,0.00,,,0.00,Wunderground v.1.15,2013-03-21 19:49:00,
2013-03-21 15:59:00,31.5,25.7,29.52,North,5,12.0,20.0,79,0.00,,,0.00,Wunderground v.1.15,2013-03-21 19:59:00,
2013-03-21 16:09:00,31.1,26.0,29.52,North,5,12.0,19.0,81,0.00,,,0.00,Wunderground v.1.15,2013-03-21 20:09:00,
2013-03-21 16:19:00,31.0,26.1,29.53,North,5,11.0,19.0,82,0.00,,,0.00,Wunderground v.1.15,2013-03-21 20:19:00,
2013-03-21 16:29:00,31.0,26.1,29.53,North,5,11.0,11.0,82,0.00,,,0.00,Wunderground v.1.15,2013-03-21 20:29:00,
2013-03-21 16:39:00,31.0,26.4,29.52,North,5,10.0,17.0,83,0.00,,,0.00,Wunderground v.1.15,2013-03-21 20:39:00,
2013-03-21 16:49:00,31.0,26.7,29.53,North,5,10.0,15.0,84,0.00,,,0.00,Wunderground v.1.15,2013-03-21 20:49:00,
2013-03-21 16:59:00,31.0,27.0,29.53,North,5,10.0,10.0,85,0.00,,,0.00,Wunderground v.1.15,2013-03-21 20:59:00,
2013-03-21 17:09:00,30.9,27.2,29.52,North,5,11.0,11.0,86,0.00,,,0.00,Wunderground v.1.15,2013-03-21 21:09:00,
2013-03-21 17:19:00,30.6,27.5,29.52,North,5,10.0,10.0,88,0.00,,,0.00,Wunderground v.1.15,2013-03-21 21:19:00,
2013-03-21 17:29:00,30.5,27.6,29.52,North,5,10.0,15.0,89,0.00,,,0.00,Wunderground v.1.15,2013-03-21 21:29:00,
2013-03-21 17:39:00,30.5,27.6,29.53,North,5,11.0,18.0,89,0.00,,,0.00,Wunderground v.1.15,2013-03-21 21:39:00,
2013-03-21 17:49:00,30.3,27.4,29.53,North,5,11.0,17.0,89,0.00,,,0.00,Wunderground v.1.15,2013-03-21 21:49:00,
2013-03-21 17:59:00,30.4,27.5,29.53,North,5,10.0,17.0,89,0.00,,,0.00,Wunderground v.1.15,2013-03-21 21:59:00,
2013-03-21 18:09:00,30.6,27.7,29.53,North,360,10.0,16.0,89,0.00,,,0.00,Wunderground v.1.15,2013-03-21 22:09:00,
2013-03-21 18:19:00,30.8,27.7,29.53,North,5,11.0,16.0,88,0.00,,,0.00,Wunderground v.1.15,2013-03-21 22:19:00,
2013-03-21 18:29:00,30.9,27.5,29.53,North,5,12.0,12.0,87,0.00,,,0.00,Wunderground v.1.15,2013-03-21 22:29:00,
2013-03-21 18:39:00,30.8,27.1,29.53,North,5,14.0,19.0,86,0.00,,,0.00,Wunderground v.1.15,2013-03-21 22:39:00,
2013-03-21 18:48:00,30.7,27.6,29.53,North,5,13.0,19.0,88,0.00,,,0.00,Wunderground v.1.15,2013-03-21 22:48:00,
2013-03-21 18:59:00,30.3,27.4,29.53,North,5,11.0,11.0,89,0.00,,,0.00,Wunderground v.1.15,2013-03-21 22:59:00,
2013-03-21 19:09:00,29.9,27.1,29.54,North,5,9.0,16.0,89,0.00,,,0.00,Wunderground v.1.15,2013-03-21 23:09:00,
2013-03-21 19:19:00,29.7,27.1,29.54,North,360,8.0,13.0,90,0.00,,,0.00,Wunderground v.1.15,2013-03-21 23:19:00,
2013-03-21 19:29:00,29.8,27.5,29.54,North,360,6.0,6.0,91,0.00,,,0.00,Wunderground v.1.15,2013-03-21 23:29:00,
2013-03-21 19:38:00,29.8,27.5,29.53,North,5,4.0,4.0,91,0.00,,,0.00,Wunderground v.1.15,2013-03-21 23:38:00,
2013-03-21 19:48:00,29.8,27.5,29.53,North,5,2.0,9.0,91,0.00,,,0.00,Wunderground v.1.15,2013-03-21 23:48:00,
2013-03-21 19:59:00,30.0,27.7,29.53,North,5,2.0,2.0,91,0.00,,,0.00,Wunderground v.1.15,2013-03-21 23:59:00,
2013-03-21 20:08:00,30.0,27.4,29.53,North,5,2.0,7.0,90,0.00,,,0.00,Wunderground v.1.15,2013-03-22 00:08:00,
2013-03-21 20:18:00,30.2,27.6,29.54,North,5,3.0,3.0,90,0.00,,,0.00,Wunderground v.1.15,2013-03-22 00:18:00,
2013-03-21 20:28:00,30.5,27.6,29.54,North,5,4.0,7.0,89,0.00,,,0.00,Wunderground v.1.15,2013-03-22 00:28:00,
2013-03-21 20:39:00,30.7,27.8,29.54,North,5,3.0,3.0,89,0.00,,,0.00,Wunderground v.1.15,2013-03-22 00:39:00,
2013-03-21 20:49:00,30.7,27.8,29.55,North,5,1.0,1.0,89,0.00,,,0.00,Wunderground v.1.15,2013-03-22 00:49:00,
2013-03-21 20:59:00,30.6,27.7,29.55,North,5,2.0,4.0,89,0.00,,,0.00,Wunderground v.1.15,2013-03-22 00:59:00,
2013-03-21 21:09:00,30.6,27.7,29.55,North,5,4.0,4.0,89,0.00,,,0.00,Wunderground v.1.15,2013-03-22 01:09:00,
2013-03-21 21:19:00,30.6,27.7,29.56,North,5,3.0,7.0,89,0.00,,,0.00,Wunderground v.1.15,2013-03-22 01:19:00,
2013-03-21 21:29:00,30.7,27.6,29.56,North,5,4.0,4.0,88,0.00,,,0.00,Wunderground v.1.15,2013-03-22 01:29:00,
2013-03-21 21:39:00,30.8,27.7,29.56,North,5,4.0,9.0,88,0.00,,,0.00,Wunderground v.1.15,2013-03-22 01:39:00,
2013-03-21 21:49:00,30.9,27.5,29.56,North,5,5.0,5.0,87,0.00,,,0.00,Wunderground v.1.15,2013-03-22 01:49:00,
2013-03-21 21:59:00,30.9,27.8,29.56,North,5,5.0,11.0,88,0.00,,,0.00,Wunderground v.1.15,2013-03-22 01:59:00,
2013-03-21 22:09:00,30.9,27.8,29.56,North,5,5.0,10.0,88,0.00,,,0.00,Wunderground v.1.15,2013-03-22 02:09:00,
2013-03-21 22:19:00,30.9,27.8,29.57,North,5,4.0,10.0,88,0.00,,,0.00,Wunderground v.1.15,2013-03-22 02:19:00,
2013-03-21 22:29:00,30.7,27.6,29.57,North,5,2.0,12.0,88,0.00,,,0.00,Wunderground v.1.15,2013-03-22 02:29:00,
2013-03-21 22:39:00,30.5,27.4,29.57,North,5,3.0,5.0,88,0.00,,,0.00,Wunderground v.1.15,2013-03-22 02:39:00,
2013-03-21 22:49:00,30.5,27.4,29.57,North,5,3.0,3.0,88,0.00,,,0.00,Wunderground v.1.15,2013-03-22 02:49:00,
2013-03-21 22:59:00,30.1,27.0,29.57,North,5,1.0,6.0,88,0.00,,,0.00,Wunderground v.1.15,2013-03-22 02:59:00,
2013-03-21 23:09:00,29.9,27.1,29.57,North,5,3.0,6.0,89,0.00,,,0.00,Wunderground v.1.15,2013-03-22 03:09:00,
2013-03-21 23:19:00,30.2,27.3,29.57,North,5,3.0,3.0,89,0.00,,,0.00,Wunderground v.1.15,2013-03-22 03:19:00,
2013-03-21 23:29:00,31.8,23.5,29.57,North,5,10.0,10.0,71,0.00,,,0.00,Wunderground v.1.15,2013-03-22 03:29:00,
2013-03-21 23:39:00,32.7,19.5,29.57,North,5,15.0,20.0,58,0.00,,,0.00,Wunderground v.1.15,2013-03-22 03:39:00,
2013-03-21 23:48:00,32.8,18.4,29.56,North,9,17.0,26.0,55,0.00,,,0.00,Wunderground v.1.15,2013-03-22 03:48:00,
2013-03-21 23:59:00,32.8,18.4,29.56,North,5,18.0,18.0,55,0.00,,,0.00,Wunderground v.1.15,2013-03-22 03:59:00,